• In Belarus
  • List of Countries
  • For 7 days
  • Water Temperature
  • Weather Map
  • Weather Widgets
  • user-avatar
    Login

    Hourly Weather Sidi Bu-l-Abbas

    Today, 25 August, Sunday

    Time Temperature Precipitation Wind Pressure Humidity
    00:00 +23°C° 0 mm 1 mps 721 mmHg 78%
    01:00 +23°C° 0 mm 1 mps 721 mmHg 79%
    02:00 +22°C° 0 mm 1 mps 720 mmHg 81%
    03:00 +22°C° 0 mm 1 mps 720 mmHg 83%
    04:00 +22°C° 0 mm 1 mps 720 mmHg 84%
    05:00 +19°C° 0 mm 0 mps 720 mmHg 84%
    06:00 +22°C° 0 mm 1 mps 720 mmHg 84%
    07:00 +23°C° 0 mm 1 mps 721 mmHg 73%
    08:00 +25°C° 0 mm 1 mps 721 mmHg 63%
    09:00 +26°C° 0 mm 2 mps 721 mmHg 53%
    10:00 +28°C° 0 mm 2 mps 721 mmHg 45%
    11:00 +30°C° 0 mm 3 mps 721 mmHg 38%
    12:00 +33°C° 0 mm 3 mps 721 mmHg 28%
    13:00 +33°C° 0 mm 4 mps 721 mmHg 29%
    14:00 +34°C° 0 mm 4 mps 720 mmHg 29%
    15:00 +34°C° 0 mm 5 mps 720 mmHg 29%
    16:00 +33°C° 0 mm 5 mps 720 mmHg 36%
    17:00 +32°C° 0 mm 5 mps 719 mmHg 44%
    18:00 +29°C° 0 mm 5 mps 719 mmHg 51%
    19:00 +28°C° 0 mm 4 mps 719 mmHg 57%
    20:00 +27°C° 0 mm 3 mps 720 mmHg 64%
    21:00 +26°C° 0 mm 2 mps 720 mmHg 70%
    22:00 +25°C° 0 mm 2 mps 720 mmHg 71%
    23:00 +25°C° 0 mm 1 mps 719 mmHg 72%

    Tomorrow, 26 August, Monday

    Time Temperature Precipitation Wind Pressure Humidity
    00:00 +23°C° 0 mm 0 mps 719 mmHg 74%
    01:00 +24°C° 0 mm 1 mps 719 mmHg 76%
    02:00 +24°C° 0 mm 1 mps 719 mmHg 78%
    03:00 +23°C° 0 mm 1 mps 718 mmHg 80%
    04:00 +24°C° 0 mm 1 mps 719 mmHg 73%
    05:00 +25°C° 0 mm 1 mps 719 mmHg 66%
    06:00 +26°C° 0 mm 2 mps 719 mmHg 59%
    07:00 +29°C° 0 mm 3 mps 719 mmHg 49%
    08:00 +31°C° 0 mm 3 mps 720 mmHg 39%
    09:00 +34°C° 0 mm 4 mps 720 mmHg 28%
    10:00 +36°C° 0 mm 5 mps 720 mmHg 24%
    11:00 +37°C° 0 mm 5 mps 720 mmHg 20%
    12:00 +40°C° 0 mm 6 mps 720 mmHg 16%
    13:00 +38°C° 0 mm 7 mps 720 mmHg 21%
    14:00 +35°C° 0 mm 8 mps 719 mmHg 26%
    15:00 +33°C° 0 mm 8 mps 719 mmHg 31%
    16:00 +33°C° 0.1 mm 9 mps 719 mmHg 31%
    17:00 +33°C° 0.1 mm 9 mps 719 mmHg 31%
    18:00 +34°C° 0.1 mm 9 mps 719 mmHg 31%
    19:00 +32°C° 0.2 mm 9 mps 719 mmHg 38%
    20:00 +29°C° 0.2 mm 8 mps 720 mmHg 45%
    21:00 +27°C° 0.2 mm 8 mps 720 mmHg 52%
    22:00 +28°C° 0 mm 8 mps 720 mmHg 46%
    23:00 +29°C° 0 mm 8 mps 720 mmHg 41%

    Day after tomorrow, 27 August, Tuesday

    Time Temperature Precipitation Wind Pressure Humidity
    00:00 +31°C° 0 mm 8 mps 720 mmHg 36%
    01:00 +29°C° 0.1 mm 7 mps 720 mmHg 38%
    02:00 +29°C° 0.1 mm 6 mps 720 mmHg 40%
    03:00 +28°C° 0.1 mm 5 mps 719 mmHg 41%
    04:00 +27°C° 0 mm 4 mps 719 mmHg 46%
    05:00 +27°C° 0 mm 4 mps 719 mmHg 50%
    06:00 +26°C° 0 mm 3 mps 719 mmHg 54%
    07:00 +27°C° 0 mm 4 mps 719 mmHg 52%
    08:00 +29°C° 0 mm 4 mps 719 mmHg 49%
    09:00 +30°C° 0 mm 5 mps 719 mmHg 47%
    10:00 +32°C° 0 mm 6 mps 719 mmHg 47%
    11:00 +32°C° 0 mm 6 mps 719 mmHg 46%
    12:00 +33°C° 0 mm 7 mps 719 mmHg 46%
    13:00 +33°C° 0 mm 7 mps 719 mmHg 48%
    14:00 +32°C° 0 mm 7 mps 719 mmHg 49%
    15:00 +32°C° 0 mm 7 mps 719 mmHg 50%
    16:00 +30°C° 0 mm 6 mps 719 mmHg 54%
    17:00 +29°C° 0 mm 5 mps 719 mmHg 58%
    18:00 +27°C° 0 mm 4 mps 719 mmHg 62%
    19:00 +27°C° 0 mm 3 mps 720 mmHg 64%
    20:00 +26°C° 0 mm 2 mps 720 mmHg 66%
    21:00 +26°C° 0 mm 1 mps 721 mmHg 68%
    22:00 +25°C° 0 mm 1 mps 721 mmHg 69%
    23:00 +23°C° 0 mm 0 mps 721 mmHg 71%

    28 August, Wednesday

    Time Temperature Precipitation Wind Pressure Humidity
    00:00 +23°C° 0 mm 0 mps 721 mmHg 72%
    01:00 +22°C° 0 mm 0 mps 720 mmHg 74%
    02:00 +22°C° 0 mm 0 mps 720 mmHg 76%
    03:00 +24°C° 0 mm 1 mps 720 mmHg 77%
    04:00 +23°C° 0 mm 1 mps 720 mmHg 78%
    05:00 +23°C° 0 mm 1 mps 720 mmHg 79%
    06:00 +23°C° 0 mm 1 mps 720 mmHg 80%
    07:00 +25°C° 0 mm 2 mps 721 mmHg 70%
    08:00 +27°C° 0 mm 2 mps 721 mmHg 60%
    09:00 +28°C° 0 mm 3 mps 721 mmHg 50%
    10:00 +30°C° 0 mm 3 mps 721 mmHg 44%
    11:00 +33°C° 0 mm 3 mps 721 mmHg 38%
    12:00 +34°C° 0 mm 4 mps 721 mmHg 32%
    13:00 +35°C° 0 mm 5 mps 721 mmHg 32%
    14:00 +36°C° 0 mm 5 mps 720 mmHg 31%
    15:00 +36°C° 0 mm 6 mps 720 mmHg 30%
    16:00 +34°C° 0 mm 6 mps 719 mmHg 35%
    17:00 +33°C° 0 mm 6 mps 719 mmHg 40%
    18:00 +30°C° 0 mm 6 mps 719 mmHg 45%
    19:00 +29°C° 0 mm 4 mps 719 mmHg 48%
    20:00 +28°C° 0 mm 3 mps 720 mmHg 50%
    21:00 +27°C° 0 mm 2 mps 720 mmHg 53%
    22:00 +27°C° 0 mm 1 mps 720 mmHg 53%
    23:00 +26°C° 0 mm 1 mps 720 mmHg 54%

    29 August, Thursday

    Time Temperature Precipitation Wind Pressure Humidity
    00:00 +24°C° 0 mm 0 mps 721 mmHg 55%
    01:00 +24°C° 0 mm 0 mps 720 mmHg 56%
    02:00 +23°C° 0 mm 0 mps 720 mmHg 57%
    03:00 +23°C° 0 mm 0 mps 720 mmHg 58%
    04:00 +23°C° 0 mm 0 mps 720 mmHg 58%
    05:00 +23°C° 0 mm 0 mps 720 mmHg 58%
    06:00 +25°C° 0 mm 1 mps 720 mmHg 59%
    07:00 +27°C° 0.2 mm 1 mps 721 mmHg 52%
    08:00 +28°C° 0.2 mm 2 mps 721 mmHg 45%
    09:00 +30°C° 0.2 mm 2 mps 721 mmHg 38%
    10:00 +31°C° 0.2 mm 2 mps 722 mmHg 35%
    11:00 +32°C° 0.2 mm 2 mps 722 mmHg 32%
    12:00 +35°C° 0.2 mm 2 mps 722 mmHg 30%
    13:00 +34°C° 0.3 mm 4 mps 722 mmHg 31%
    14:00 +34°C° 0.3 mm 5 mps 722 mmHg 32%
    15:00 +34°C° 0.3 mm 6 mps 722 mmHg 33%
    16:00 +33°C° 0 mm 6 mps 721 mmHg 35%
    17:00 +33°C° 0 mm 6 mps 721 mmHg 37%
    18:00 +32°C° 0 mm 6 mps 721 mmHg 39%
    19:00 +30°C° 0 mm 5 mps 721 mmHg 42%
    20:00 +29°C° 0 mm 4 mps 721 mmHg 45%
    21:00 +28°C° 0 mm 3 mps 721 mmHg 48%
    22:00 +28°C° 0.1 mm 2 mps 721 mmHg 49%
    23:00 +28°C° 0.1 mm 2 mps 721 mmHg 51%

    30 August, Friday

    Time Temperature Precipitation Wind Pressure Humidity
    00:00 +27°C° 0.1 mm 2 mps 721 mmHg 52%
    01:00 +27°C° 0 mm 2 mps 721 mmHg 53%
    02:00 +27°C° 0 mm 2 mps 720 mmHg 55%
    03:00 +26°C° 0 mm 1 mps 720 mmHg 56%
    04:00 +26°C° 0 mm 1 mps 720 mmHg 58%
    05:00 +25°C° 0 mm 1 mps 720 mmHg 61%
    06:00 +23°C° 0 mm 0 mps 720 mmHg 64%
    07:00 +27°C° 0 mm 1 mps 721 mmHg 57%
    08:00 +28°C° 0 mm 1 mps 721 mmHg 51%
    09:00 +30°C° 0 mm 1 mps 721 mmHg 45%
    10:00 +31°C° 0 mm 2 mps 721 mmHg 41%
    11:00 +33°C° 0 mm 3 mps 721 mmHg 36%
    12:00 +35°C° 0 mm 3 mps 721 mmHg 32%
    13:00 +35°C° 0 mm 4 mps 721 mmHg 33%
    14:00 +35°C° 0 mm 6 mps 720 mmHg 33%
    15:00 +35°C° 0 mm 7 mps 720 mmHg 34%
    16:00 +33°C° 0 mm 6 mps 720 mmHg 38%
    17:00 +32°C° 0 mm 6 mps 719 mmHg 42%
    18:00 +29°C° 0 mm 5 mps 719 mmHg 47%
    19:00 +28°C° 0 mm 4 mps 720 mmHg 50%
    20:00 +27°C° 0 mm 3 mps 720 mmHg 53%
    21:00 +26°C° 0 mm 2 mps 720 mmHg 56%
    22:00 +26°C° 0 mm 2 mps 720 mmHg 59%
    23:00 +25°C° 0 mm 1 mps 720 mmHg 61%
    Show more